[[{"header":{"parameterUnit":"m.s-1","parameterCategory":1,"la1":30.2991,"la2":30.254,"lo1":-89.0895,"lo2":-89.0444,"dy":0.0017,"dx":0.0017,"nx":28,"ny":28,"refTime":"2024-08-14T03:00:00:Z","depth":0,"parameterNumber":2,"parameterNumberName":"U-component_of_WINDS"},"data":[0,0,0,0,0,0,0,0,0,0,0,0,0,0,0,0,0,0,0,0,0,0,0,0,0,0,0,0,0,0,0,0,0,0,0,0,0,0,0,0,0,0,0,0,0,0,0,0,0,0,0,0,0,0,0,0,0,0,1.5773,1.5773,0,1.5808,1.5808,1.5808,1.5775,1.5774,1.5773,1.5771,1.5806,1.5808,1.581,0,0,0,0,0,0,0,0,0,0,0,0,0,1.5678,1.568,1.5773,1.5773,1.5774,1.5807,1.5808,1.5808,1.5776,1.5774,1.5772,1.5771,1.5805,1.5808,1.581,0,0,0,0,0,0,0,0,0,0,0,0,0,1.5717,1.5681,1.5773,1.5761,1.5761,1.5807,1.5808,1.5809,1.5776,1.5774,1.5772,1.577,1.5804,1.5807,1.5811,1.587,0,0,1.582,1.5822,0,0,0,0,0,0,0,0,1.5715,1.572,1.5763,1.5762,1.5762,1.5785,1.5787,1.5829,1.5776,1.577,1.5771,1.5769,1.58,1.5804,1.5815,1.5871,1.5873,1.5821,1.5823,1.5824,1.5825,0,0,0,0,0,0,0,1.5712,1.5719,1.5787,1.5763,1.5763,1.5755,1.5758,1.5795,1.5796,1.577,1.5768,1.5773,1.58,1.5812,1.5815,1.5873,1.5821,1.5823,1.5825,1.5827,1.5982,1.5984,0,0,0,0,0,0,1.5711,1.5717,1.5785,1.5788,1.5733,1.5758,1.5762,1.578,1.5795,1.5796,1.5774,1.5771,1.5807,1.5811,1.5816,1.5888,1.5824,1.5827,1.5829,1.598,1.5983,1.5985,0,0,0,0,0,0,1.5709,1.5717,1.5784,1.5752,1.5759,1.5762,1.5782,1.5781,1.5793,1.5798,1.5798,1.5786,1.5806,1.5812,1.5857,1.5889,1.5828,1.5831,1.5977,1.5981,1.5984,1.6031,0,0,0,0,0,0,1.5706,1.5717,1.5739,1.5752,1.5761,1.5825,1.5784,1.5783,1.5799,1.5795,1.581,1.581,1.5805,1.5853,1.586,1.5892,1.5834,1.5975,1.5979,1.5983,1.6027,1.6035,1.6043,0,0,0,0,0,1.5703,1.575,1.574,1.5749,1.5789,1.5826,1.5832,1.5825,1.5801,1.5824,1.5828,1.581,1.5884,1.5858,1.5866,1.5899,1.5973,1.5978,1.5983,1.6023,1.6034,1.6043,0,0,0,0,0,0,1.574,1.5752,1.5741,1.5794,1.581,1.5821,1.5849,1.5836,1.5858,1.5853,1.5843,1.5847,1.5895,1.5902,1.5872,1.5958,1.5925,1.5931,1.5952,1.5963,1.5971,1.5968,1.5836,0,0,0,0,0,1.5754,1.5783,1.5792,1.5838,1.5847,1.5847,1.5862,1.5856,1.5872,1.5878,1.5885,1.59,1.5927,1.5945,1.597,1.6027,1.6031,1.6054,1.6062,1.6069,1.6075,1.6107,1.6118,1.6001,1.6001,1.6001,0,0,1.5784,1.5794,1.5813,1.5846,1.5857,1.5888,1.5852,1.5886,1.5909,1.5883,1.5927,1.5932,1.5949,1.6001,1.6024,1.6008,1.6108,1.6075,1.6081,1.6083,1.6114,1.6125,1.6135,1.6005,1.6004,1.6004,0,0,1.5854,1.5865,1.5905,1.5917,1.5935,1.5935,1.5945,1.5959,1.5962,1.6006,1.5987,1.6014,1.6061,1.6074,1.6087,1.6164,1.6148,1.6172,1.6215,1.6247,1.6256,1.6264,1.6293,1.6303,1.6178,1.6179,1.6179,0,1.5889,1.5935,1.5927,1.5963,1.5978,1.5957,1.5998,1.601,1.6035,1.6046,1.6028,1.6086,1.6096,1.6152,1.6171,1.6182,1.6193,1.6171,1.6255,1.6263,1.6271,1.6298,1.6309,1.6181,1.6181,1.6181,1.6181,0,1.5977,1.6009,1.6039,1.6065,1.6084,1.6122,1.612,1.614,1.6133,1.6135,1.6181,1.6192,1.622,1.6232,1.6224,1.6287,1.6277,1.6257,1.6223,1.6285,1.631,1.6321,1.6186,1.6185,1.6184,1.6183,0,0,1.607,1.6093,1.6104,1.6116,1.6135,1.616,1.6198,1.6225,1.6243,1.6262,1.6293,1.6334,1.6316,1.6331,1.6325,1.6352,1.6414,1.6329,1.6329,1.6345,1.6486,1.6501,1.6513,1.6404,1.6406,1.6408,1.6484,0,1.6142,1.6208,1.6203,1.6265,1.6295,1.6276,1.6309,1.6325,1.6328,1.6354,1.6358,1.6387,1.6361,1.637,1.6396,1.6401,1.6442,1.6395,1.6434,1.6435,1.6431,1.6526,1.6542,1.6614,1.6494,1.6496,1.6497,0,1.6234,1.6257,1.6323,1.6339,1.6351,1.6381,1.6407,1.6432,1.6449,1.645,1.6467,1.6457,1.6495,1.6461,1.6514,1.6482,1.6498,1.6503,1.6505,1.6509,1.647,1.6533,1.6636,1.6648,1.6512,1.6511,1.651,0,1.6297,1.6344,1.639,1.6401,1.642,1.6442,1.6451,1.6467,1.6484,1.6507,1.6518,1.6545,1.6559,1.658,1.6578,1.6552,1.6632,1.6597,1.6634,1.6635,1.6652,1.6651,1.676,1.6661,1.6661,1.6661,1.6661,0,1.6378,1.6419,1.6419,1.6447,1.6493,1.6487,1.6532,1.6539,1.6553,1.6583,1.6567,1.6595,1.659,1.6618,1.6616,1.6661,1.6667,1.6669,1.6668,1.6671,1.6671,1.6681,1.6676,1.6664,1.6663,1.6662,1.6662,0,1.6456,1.6457,1.6506,1.6521,1.6526,1.6559,1.6572,1.6599,1.6602,1.6639,1.6648,1.6652,1.6684,1.6684,1.672,1.6719,1.6774,1.6767,1.6769,1.6768,1.6805,1.6802,1.6925,1.6942,1.6831,1.6832,1.6833,0,1.6507,1.6539,1.6558,1.6577,1.6588,1.6618,1.6637,1.6632,1.6652,1.6675,1.67,1.6731,1.6755,1.6808,1.6814,1.6843,1.6836,1.6878,1.6841,1.6843,1.6838,1.6837,1.684,1.6885,1.6886,1.6887,1.6888,0,1.66,1.6599,1.6626,1.6654,1.6677,1.6698,1.6718,1.6735,1.6733,1.6756,1.6789,1.6808,1.6846,1.6878,1.6905,1.6915,1.6902,1.69,1.691,1.6913,1.6913,1.6915,1.6789,1.6897,1.6896,1.6896,1.6895,1.6895,1.6666,1.6694,1.6712,1.6744,1.6758,1.6778,1.6804,1.6811,1.6839,1.687,1.6866,1.6903,1.6921,1.6957,1.6969,1.6999,1.6984,1.6999,1.7002,1.7006,1.7011,1.6909,1.7003,1.7003,1.7003,1.7003,1.7002,0,1.6759,1.677,1.6799,1.6828,1.6853,1.6839,1.686,1.6882,1.6916,1.6934,1.6959,1.6998,1.7029,1.7038,1.7068,1.709,1.7085,1.7098,1.7096,1.7099,1.7022,1.701,1.7102,1.7102,1.7102,1.7102,1.7102,1.7102,1.6809,1.6856,1.6858,1.6912,1.6923,1.696,1.6974,1.6992,1.7007,1.7051,1.7077,1.7083,1.7098,1.7129,1.7157,1.7159,1.7171,1.7187,1.7187,1.7114,1.7104,1.7095,1.7084,1.719,1.719,1.7262,1.7263,1.7263]},{"header":{"parameterUnit":"m.s-1","parameterCategory":1,"la1":30.2991,"la2":30.254,"lo1":-89.0895,"lo2":-89.0444,"dy":0.0017,"dx":0.0017,"nx":28,"ny":28,"refTime":"2024-08-14T03:00:00:Z","depth":0,"parameterNumber":3,"parameterNumberName":"V-component_of_WINDS"},"data":[0,0,0,0,0,0,0,0,0,0,0,0,0,0,0,0,0,0,0,0,0,0,0,0,0,0,0,0,0,0,0,0,0,0,0,0,0,0,0,0,0,0,0,0,0,0,0,0,0,0,0,0,0,0,0,0,0,0,-2.6266,-2.6267,0,-2.6359,-2.636,-2.6361,-2.6339,-2.6337,-2.6335,-2.6333,-2.6427,-2.6431,-2.6435,0,0,0,0,0,0,0,0,0,0,0,0,0,-2.6065,-2.6069,-2.6266,-2.6267,-2.6268,-2.6359,-2.636,-2.6362,-2.6339,-2.6337,-2.6334,-2.6332,-2.6425,-2.643,-2.6435,0,0,0,0,0,0,0,0,0,0,0,0,0,-2.6155,-2.607,-2.6266,-2.6268,-2.6269,-2.6359,-2.6361,-2.6362,-2.6339,-2.6337,-2.6334,-2.6331,-2.6424,-2.643,-2.6436,-2.6529,0,0,-2.6455,-2.6458,0,0,0,0,0,0,0,0,-2.615,-2.6162,-2.6266,-2.6268,-2.6269,-2.6335,-2.6324,-2.6418,-2.634,-2.6313,-2.6333,-2.633,-2.6398,-2.6406,-2.643,-2.6533,-2.6537,-2.6455,-2.6459,-2.6462,-2.6464,0,0,0,0,0,0,0,-2.6144,-2.6158,-2.6303,-2.6268,-2.627,-2.6263,-2.6273,-2.6342,-2.6369,-2.6315,-2.6313,-2.6325,-2.6398,-2.6424,-2.6432,-2.6538,-2.6455,-2.6461,-2.6465,-2.6467,-2.6722,-2.6725,0,0,0,0,0,0,-2.6137,-2.6153,-2.63,-2.6306,-2.6202,-2.6269,-2.628,-2.6316,-2.6368,-2.6374,-2.6327,-2.6323,-2.6414,-2.6424,-2.6435,-2.6547,-2.6462,-2.6468,-2.6471,-2.6719,-2.6723,-2.6726,0,0,0,0,0,0,-2.6132,-2.615,-2.6296,-2.6229,-2.6247,-2.6276,-2.6316,-2.632,-2.6345,-2.6378,-2.6382,-2.6348,-2.6412,-2.6426,-2.6506,-2.655,-2.647,-2.6476,-2.6716,-2.672,-2.6725,-2.6773,0,0,0,0,0,0,-2.6127,-2.6149,-2.6185,-2.623,-2.6251,-2.6366,-2.6319,-2.6323,-2.6356,-2.6352,-2.6399,-2.6404,-2.6411,-2.6496,-2.6512,-2.6557,-2.6481,-2.6712,-2.6718,-2.6723,-2.6767,-2.6778,-2.6788,0,0,0,0,0,-2.612,-2.6194,-2.6187,-2.6205,-2.6297,-2.6369,-2.6381,-2.6389,-2.636,-2.6396,-2.6417,-2.6402,-2.6543,-2.6505,-2.6522,-2.657,-2.6709,-2.6716,-2.6723,-2.6763,-2.6776,-2.6787,0,0,0,0,0,0,-2.6153,-2.62,-2.6193,-2.6284,-2.6323,-2.6365,-2.6411,-2.6403,-2.645,-2.6444,-2.6451,-2.6462,-2.6543,-2.6564,-2.6521,-2.6662,-2.6622,-2.6632,-2.6646,-2.6659,-2.6669,-2.6663,-2.6486,0,0,0,0,0,-2.6171,-2.6226,-2.6264,-2.6341,-2.6361,-2.6383,-2.6414,-2.6417,-2.6457,-2.6473,-2.65,-2.6539,-2.6592,-2.6626,-2.6677,-2.677,-2.6779,-2.6811,-2.6821,-2.683,-2.6839,-2.689,-2.6904,-2.6749,-2.6749,-2.6749,0,0,-2.6208,-2.6241,-2.6275,-2.6348,-2.6379,-2.6435,-2.6397,-2.6458,-2.65,-2.6482,-2.656,-2.6581,-2.6624,-2.6711,-2.6751,-2.6731,-2.6884,-2.6838,-2.6845,-2.685,-2.6898,-2.6913,-2.6926,-2.6753,-2.6752,-2.6752,0,0,-2.6306,-2.6336,-2.6404,-2.6435,-2.6482,-2.6496,-2.6512,-2.6556,-2.6569,-2.6647,-2.6635,-2.6684,-2.6775,-2.6807,-2.6835,-2.6944,-2.6932,-2.696,-2.7014,-2.7063,-2.7075,-2.7086,-2.7126,-2.714,-2.6969,-2.6969,-2.6969,0,-2.6347,-2.6432,-2.6439,-2.6502,-2.6534,-2.6522,-2.659,-2.6619,-2.668,-2.6702,-2.6679,-2.6793,-2.6822,-2.6916,-2.6943,-2.6966,-2.6984,-2.6955,-2.7073,-2.7084,-2.7094,-2.7132,-2.7147,-2.6972,-2.6972,-2.6971,-2.6971,0,-2.648,-2.6539,-2.6588,-2.6648,-2.6685,-2.675,-2.6767,-2.6804,-2.6803,-2.6819,-2.6898,-2.6932,-2.6989,-2.7011,-2.7011,-2.7106,-2.7092,-2.7071,-2.7031,-2.7112,-2.7148,-2.7162,-2.6976,-2.6975,-2.6974,-2.6974,0,0,-2.6602,-2.6664,-2.6682,-2.6709,-2.6759,-2.6805,-2.6869,-2.6926,-2.6958,-2.6999,-2.7053,-2.713,-2.7111,-2.7143,-2.7146,-2.7189,-2.7274,-2.7163,-2.7164,-2.7183,-2.7381,-2.7397,-2.7414,-2.7266,-2.7269,-2.7271,-2.7377,0,-2.6704,-2.6819,-2.6827,-2.6929,-2.6984,-2.6973,-2.7028,-2.7065,-2.7081,-2.713,-2.7147,-2.7202,-2.7173,-2.7192,-2.7234,-2.7255,-2.7314,-2.7247,-2.7316,-2.7319,-2.7307,-2.7432,-2.7449,-2.7548,-2.7391,-2.7394,-2.7395,0,-2.684,-2.6886,-2.6995,-2.7038,-2.7061,-2.7111,-2.7163,-2.721,-2.7251,-2.726,-2.7295,-2.7292,-2.7357,-2.7313,-2.7403,-2.7357,-2.7386,-2.74,-2.7404,-2.7411,-2.7363,-2.7443,-2.758,-2.7595,-2.7417,-2.7415,-2.7414,0,-2.6918,-2.7008,-2.7085,-2.7108,-2.716,-2.7195,-2.7218,-2.7256,-2.729,-2.7335,-2.7357,-2.7409,-2.7437,-2.7477,-2.7488,-2.7455,-2.7578,-2.7535,-2.7587,-2.7587,-2.7614,-2.7612,-2.7757,-2.7631,-2.7631,-2.763,-2.763,0,-2.7033,-2.71,-2.7121,-2.7168,-2.7243,-2.7251,-2.7324,-2.7345,-2.7379,-2.7429,-2.7421,-2.7469,-2.748,-2.7529,-2.7537,-2.7611,-2.7623,-2.7632,-2.7634,-2.7633,-2.7632,-2.7653,-2.7647,-2.7634,-2.7633,-2.7633,-2.7632,0,-2.7134,-2.7151,-2.7234,-2.7276,-2.7288,-2.7341,-2.7376,-2.7421,-2.7436,-2.7501,-2.7516,-2.754,-2.7598,-2.7612,-2.768,-2.7686,-2.7773,-2.7767,-2.7759,-2.7759,-2.7811,-2.7806,-2.7975,-2.7998,-2.7855,-2.7857,-2.7858,0,-2.7206,-2.7257,-2.7305,-2.7339,-2.7363,-2.7418,-2.7452,-2.7461,-2.7497,-2.7547,-2.7586,-2.7643,-2.7689,-2.7782,-2.7805,-2.7857,-2.7853,-2.7909,-2.7861,-2.7859,-2.7855,-2.7852,-2.7858,-2.7918,-2.792,-2.7921,-2.7922,0,-2.7333,-2.7339,-2.7389,-2.7442,-2.7483,-2.7525,-2.7566,-2.7593,-2.7608,-2.7649,-2.7708,-2.7744,-2.7814,-2.7871,-2.7923,-2.7946,-2.7937,-2.7937,-2.7952,-2.7952,-2.7946,-2.7951,-2.7785,-2.7933,-2.7932,-2.7931,-2.793,-2.793,-2.7422,-2.7468,-2.7508,-2.7564,-2.7595,-2.7633,-2.7678,-2.7699,-2.7749,-2.7807,-2.7809,-2.7874,-2.7913,-2.7983,-2.8008,-2.8058,-2.8042,-2.8063,-2.8069,-2.8074,-2.8079,-2.7937,-2.8068,-2.8068,-2.8067,-2.8067,-2.8067,0,-2.7549,-2.7575,-2.7626,-2.7683,-2.7727,-2.7715,-2.7758,-2.7796,-2.7853,-2.7891,-2.7936,-2.8004,-2.8059,-2.8086,-2.814,-2.8175,-2.8172,-2.8189,-2.8187,-2.8193,-2.8091,-2.8073,-2.8191,-2.8191,-2.8191,-2.8191,-2.8191,-2.819,-2.7621,-2.7697,-2.7707,-2.7799,-2.7823,-2.7887,-2.7913,-2.7948,-2.7978,-2.8055,-2.81,-2.8118,-2.8151,-2.8208,-2.8257,-2.8263,-2.8284,-2.8303,-2.8308,-2.8212,-2.82,-2.8188,-2.8171,-2.8307,-2.8308,-2.8406,-2.8406,-2.8407]}]]